Location: Leuk
(46.3174°N, 7.6341°E)
Time: 21:06:17
(UTC+00:00)

H-2A R/B - Pass Details

Date: 09 March 2021
Orbit: 578 x 654 km, 98.5° (Epoch: 20 April)

Event Time Altitude Azimuth Distance (km) Brightness Sun altitude
Rises 03:35:27 0° 147° (SSE) 2,855 5.6 -24.3°
Reaches altitude 10° 03:37:43 10° 140° (SE) 1,943 4.8 -24.0°
Maximum altitude 03:41:41 43° 70° (ENE) 848 3.2 -23.3°
Drops below altitude 10° 03:45:37 10° 359° (N) 1,922 4.8 -22.7°
Sets 03:47:51 0° 353° (N) 2,819 5.6 -22.3°
